When you browse on this site, cookies collect data to enhance your experience and personalize the content and advertising you see.
Visit our Privacy Policy to learn more. By continuing to use the site, you agree to this use of cookies and data.
  • In Portugal
  • List of Countries
  • For 7 days
  • Water Temperature
  • Satellite Maps
  • Weather Map
  • Weather Widgets
  • user-avatar
    Login

    Hourly Weather Sarafovo

    Today, 23 May, Thursday

    Time Temperature Precipitation Wind Pressure Humidity
    00:00 +16°C° 0 mm 1 mps 756 mmHg 83%
    01:00 +16°C° 0 mm 1 mps 756 mmHg 84%
    02:00 +16°C° 0 mm 2 mps 755 mmHg 82%
    03:00 +16°C° 0.1 mm 2 mps 755 mmHg 83%
    04:00 +16°C° 0.1 mm 2 mps 756 mmHg 83%
    05:00 +15°C° 0.1 mm 2 mps 756 mmHg 84%
    06:00 +17°C° 0 mm 2 mps 756 mmHg 77%
    07:00 +20°C° 0 mm 1 mps 756 mmHg 71%
    08:00 +22°C° 0 mm 1 mps 756 mmHg 64%
    09:00 +24°C° 0 mm 1 mps 755 mmHg 61%
    10:00 +25°C° 0 mm 1 mps 755 mmHg 57%
    11:00 +26°C° 0 mm 1 mps 755 mmHg 53%
    12:00 +26°C° 0.5 mm 1 mps 755 mmHg 54%
    13:00 +26°C° 0.5 mm 1 mps 755 mmHg 56%
    14:00 +26°C° 0.5 mm 1 mps 755 mmHg 58%
    15:00 +26°C° 0.5 mm 1 mps 755 mmHg 59%
    16:00 +25°C° 0.5 mm 1 mps 755 mmHg 60%
    17:00 +25°C° 0.5 mm 1 mps 754 mmHg 62%
    18:00 +23°C° 0.2 mm 1 mps 754 mmHg 66%
    19:00 +22°C° 0.2 mm 1 mps 754 mmHg 71%
    20:00 +20°C° 0.2 mm 1 mps 754 mmHg 76%
    21:00 +20°C° 0 mm 1 mps 754 mmHg 77%
    22:00 +19°C° 0 mm 1 mps 754 mmHg 79%
    23:00 +19°C° 0 mm 1 mps 754 mmHg 81%

    Tomorrow, 24 May, Friday

    Time Temperature Precipitation Wind Pressure Humidity
    00:00 +18°C° 0 mm 1 mps 754 mmHg 82%
    01:00 +18°C° 0 mm 1 mps 754 mmHg 84%
    02:00 +16°C° 0 mm 1 mps 754 mmHg 86%
    03:00 +16°C° 0.2 mm 1 mps 754 mmHg 87%
    04:00 +16°C° 0.2 mm 1 mps 754 mmHg 88%
    05:00 +16°C° 0.2 mm 1 mps 754 mmHg 89%
    06:00 +16°C° 0.5 mm 2 mps 754 mmHg 86%
    07:00 +17°C° 0.5 mm 2 mps 754 mmHg 84%
    08:00 +18°C° 0.5 mm 2 mps 754 mmHg 81%
    09:00 +20°C° 0 mm 2 mps 754 mmHg 75%
    10:00 +21°C° 0 mm 2 mps 754 mmHg 69%
    11:00 +22°C° 0 mm 3 mps 754 mmHg 63%
    12:00 +24°C° 0 mm 2 mps 754 mmHg 60%
    13:00 +24°C° 0 mm 2 mps 753 mmHg 58%
    14:00 +25°C° 0 mm 1 mps 753 mmHg 55%
    15:00 +24°C° 0.4 mm 1 mps 753 mmHg 58%
    16:00 +24°C° 0.4 mm 1 mps 753 mmHg 61%
    17:00 +24°C° 0.4 mm 2 mps 752 mmHg 64%
    18:00 +21°C° 0.3 mm 2 mps 752 mmHg 70%
    19:00 +21°C° 0.3 mm 1 mps 753 mmHg 76%
    20:00 +19°C° 0.3 mm 1 mps 753 mmHg 82%
    21:00 +17°C° 0 mm 2 mps 753 mmHg 83%
    22:00 +17°C° 0 mm 2 mps 753 mmHg 85%
    23:00 +16°C° 0 mm 3 mps 753 mmHg 86%

    Day after tomorrow, 25 May, Saturday

    Time Temperature Precipitation Wind Pressure Humidity
    00:00 +16°C° 0.2 mm 3 mps 753 mmHg 87%
    01:00 +16°C° 0.2 mm 3 mps 753 mmHg 88%
    02:00 +14°C° 0.2 mm 3 mps 753 mmHg 89%
    03:00 +14°C° 0 mm 3 mps 754 mmHg 89%
    04:00 +14°C° 0 mm 3 mps 754 mmHg 89%
    05:00 +13°C° 0 mm 3 mps 754 mmHg 89%
    06:00 +16°C° 0 mm 3 mps 754 mmHg 83%
    07:00 +18°C° 0 mm 4 mps 755 mmHg 77%
    08:00 +19°C° 0 mm 4 mps 755 mmHg 71%
    09:00 +21°C° 0 mm 4 mps 755 mmHg 67%
    10:00 +22°C° 0 mm 4 mps 755 mmHg 62%
    11:00 +25°C° 0 mm 4 mps 755 mmHg 58%
    12:00 +25°C° 0.5 mm 4 mps 755 mmHg 57%
    13:00 +25°C° 0.5 mm 3 mps 755 mmHg 57%
    14:00 +26°C° 0.5 mm 3 mps 755 mmHg 57%
    15:00 +25°C° 0.6 mm 3 mps 755 mmHg 60%
    16:00 +25°C° 0.6 mm 3 mps 754 mmHg 62%
    17:00 +25°C° 0.6 mm 3 mps 754 mmHg 64%
    18:00 +23°C° 0.1 mm 2 mps 755 mmHg 69%
    19:00 +21°C° 0.1 mm 2 mps 755 mmHg 74%
    20:00 +19°C° 0.1 mm 2 mps 755 mmHg 79%
    21:00 +18°C° 0 mm 2 mps 755 mmHg 81%
    22:00 +18°C° 0 mm 2 mps 756 mmHg 82%
    23:00 +17°C° 0 mm 2 mps 756 mmHg 84%

    26 May, Sunday

    Time Temperature Precipitation Wind Pressure Humidity
    00:00 +17°C° 0 mm 2 mps 756 mmHg 85%
    01:00 +16°C° 0 mm 2 mps 756 mmHg 85%
    02:00 +16°C° 0 mm 2 mps 756 mmHg 86%
    03:00 +16°C° 0 mm 2 mps 756 mmHg 86%
    04:00 +16°C° 0 mm 2 mps 756 mmHg 86%
    05:00 +15°C° 0 mm 2 mps 756 mmHg 86%
    06:00 +18°C° 0 mm 2 mps 757 mmHg 80%
    07:00 +20°C° 0 mm 2 mps 757 mmHg 74%
    08:00 +23°C° 0 mm 2 mps 757 mmHg 68%
    09:00 +24°C° 0 mm 1 mps 757 mmHg 63%
    10:00 +26°C° 0 mm 1 mps 758 mmHg 58%
    11:00 +27°C° 0 mm 1 mps 758 mmHg 52%
    12:00 +28°C° 0 mm 2 mps 758 mmHg 52%
    13:00 +28°C° 0 mm 3 mps 757 mmHg 51%
    14:00 +28°C° 0 mm 3 mps 757 mmHg 51%
    15:00 +28°C° 0 mm 4 mps 757 mmHg 54%
    16:00 +27°C° 0 mm 4 mps 757 mmHg 57%
    17:00 +26°C° 0 mm 4 mps 757 mmHg 60%
    18:00 +23°C° 0 mm 4 mps 757 mmHg 67%
    19:00 +21°C° 0 mm 3 mps 757 mmHg 73%
    20:00 +20°C° 0 mm 3 mps 757 mmHg 79%
    21:00 +19°C° 0 mm 3 mps 757 mmHg 81%
    22:00 +19°C° 0 mm 2 mps 757 mmHg 83%
    23:00 +18°C° 0 mm 2 mps 757 mmHg 85%

    27 May, Monday

    Time Temperature Precipitation Wind Pressure Humidity
    00:00 +19°C° 0 mm 1 mps 757 mmHg 86%
    01:00 +19°C° 0 mm 1 mps 757 mmHg 86%
    02:00 +19°C° 0 mm 1 mps 757 mmHg 87%
    03:00 +18°C° 0 mm 1 mps 757 mmHg 86%
    04:00 +18°C° 0 mm 1 mps 757 mmHg 86%
    05:00 +16°C° 0 mm 0 mps 757 mmHg 86%
    06:00 +20°C° 0 mm 1 mps 757 mmHg 78%
    07:00 +22°C° 0 mm 1 mps 757 mmHg 71%
    08:00 +24°C° 0 mm 1 mps 757 mmHg 63%
    09:00 +25°C° 0 mm 2 mps 757 mmHg 59%
    10:00 +26°C° 0 mm 3 mps 757 mmHg 55%
    11:00 +28°C° 0 mm 4 mps 757 mmHg 51%
    12:00 +28°C° 0 mm 4 mps 757 mmHg 51%
    13:00 +28°C° 0 mm 5 mps 756 mmHg 51%
    14:00 +28°C° 0 mm 5 mps 756 mmHg 51%
    15:00 +27°C° 0 mm 5 mps 756 mmHg 55%
    16:00 +26°C° 0 mm 5 mps 756 mmHg 59%
    17:00 +25°C° 0 mm 5 mps 755 mmHg 63%
    18:00 +22°C° 0 mm 4 mps 755 mmHg 68%
    19:00 +21°C° 0 mm 4 mps 755 mmHg 74%
    20:00 +19°C° 0 mm 3 mps 755 mmHg 79%
    21:00 +19°C° 0 mm 3 mps 755 mmHg 80%
    22:00 +18°C° 0 mm 2 mps 755 mmHg 82%
    23:00 +18°C° 0 mm 2 mps 755 mmHg 83%

    28 May, Tuesday

    Time Temperature Precipitation Wind Pressure Humidity
    00:00 +19°C° 0 mm 1 mps 755 mmHg 82%
    01:00 +19°C° 0 mm 1 mps 754 mmHg 81%
    02:00 +18°C° 0 mm 1 mps 754 mmHg 79%
    03:00 +18°C° 0 mm 1 mps 754 mmHg 78%
    04:00 +18°C° 0 mm 1 mps 754 mmHg 77%
    05:00 +16°C° 0 mm 0 mps 754 mmHg 76%
    06:00 +20°C° 0.2 mm 1 mps 754 mmHg 72%
    07:00 +22°C° 0.2 mm 1 mps 754 mmHg 69%
    08:00 +25°C° 0.2 mm 1 mps 754 mmHg 65%
    09:00 +27°C° 0 mm 2 mps 754 mmHg 57%
    10:00 +29°C° 0 mm 3 mps 754 mmHg 49%
    11:00 +31°C° 0 mm 3 mps 753 mmHg 40%
    12:00 +32°C° 0 mm 4 mps 753 mmHg 39%
    13:00 +33°C° 0 mm 4 mps 753 mmHg 39%
    14:00 +33°C° 0 mm 4 mps 753 mmHg 38%
    15:00 +33°C° 0 mm 4 mps 753 mmHg 40%
    16:00 +32°C° 0 mm 4 mps 752 mmHg 42%
    17:00 +30°C° 0 mm 4 mps 752 mmHg 44%
    18:00 +28°C° 0 mm 4 mps 753 mmHg 47%
    19:00 +26°C° 0 mm 3 mps 753 mmHg 50%
    20:00 +22°C° 0 mm 3 mps 753 mmHg 52%
    21:00 +21°C° 0 mm 3 mps 753 mmHg 54%
    22:00 +20°C° 0 mm 3 mps 753 mmHg 55%
    23:00 +19°C° 0 mm 3 mps 754 mmHg 56%
    Show more